Location: Rounton
(54.4000°N, 1.3500°W)
Time: 13:27:06
(UTC+00:00)

Transit 4A - Pass Details

Date: 06 December 2021
Orbit: 864 x 981 km, 66.8° (Epoch: 20 January)

Event Time Altitude Azimuth Distance (km) Brightness Sun altitude
Rises 03:25:49 0° 318° (NW) 3,600 - -39.8°
Reaches altitude 10° 03:28:20 10° 315° (NW) 2,669 - -39.4°
Maximum altitude 03:34:30 65° 236° (SW) 1,056 - -38.6°
Drops below altitude 10° 03:40:47 10° 156° (SSE) 2,717 - -37.7°
Exits shadow 03:41:35 - 155° (SSE) 3,008 10.6 -37.6°
Sets 03:43:22 0° 154° (SSE) 3,667 11.1 -37.3°
